This demonstration page uses our WeatherBlox Daily Observations layout. Learn more.

Left ArrowRight Arrow

41.86663, -103.66717

Hourly Observations for July 3, 2022

Temp ( °F °C ) Dew Point ( °F °C ) Humidity (%) Winds ( mph kmh ) Pressure ( in mb ) Visibility ( mi km ) Precip ( " mm )
12:53 am 00:53 Clear 71 21.7 61 16.1 71 71 ESE 15 24 29.86 1011 10 16 0.00 0.00
1:53 am 01:53 Clear 70 21.1 61 16.1 73 73 ESE 14 22 29.85 1011 10 16 0.00 0.00
2:53 am 02:53 Clear 70 21.1 61 16.1 73 73 ESE 14 22 29.82 1010 10 16 0.00 0.00
3:53 am 03:53 Clear 66 18.9 61 16.1 84 84 ESE 8 13 29.83 1010 10 16 0.00 0.00
4:53 am 04:53 Clear 65 18.3 61 16.1 87 87 E 12 19 29.82 1010 10 16 0.00 0.00
5:53 am 05:53 Sunny 66 18.9 61 16.1 84 84 ESE 12 19 29.82 1010 10 16 0.00 0.00
6:53 am 06:53 Sunny 68 20 62 16.7 81 81 ESE 12 19 29.81 1010 10 16 0.00 0.00
7:53 am 07:53 Sunny 72 22.2 62 16.7 71 71 ESE 13 20 29.82 1010 10 16 0.00 0.00
8:53 am 08:53 Sunny 77 25 63 17.2 62 62 E 8 13 29.83 1010 10 16 0.00 0.00
9:53 am 09:53 Sunny 81 27.2 64 17.8 57 57 E 6 9 29.80 1009 10 16 0.00 0.00
10:53 am 10:53 Sunny 89 31.7 56 13.3 33 33 SW 9 15 29.77 1008 10 16 0.00 0.00
11:53 am 11:53 Sunny 94 34.4 53 11.7 25 25 S 13 20 29.75 1007 10 16 0.00 0.00
12:53 pm 12:53 Mostly Sunny 96 35.6 52 11.1 23 23 S 6 9 29.73 1007 10 16 0.00 0.00
1:53 pm 13:53 Sunny 95 35 50 10 22 22 S 8 13 29.70 1006 10 16 0.00 0.00
2:53 pm 14:53 Sunny 97 36.1 52 11.1 22 22 SE 14 22 29.69 1005 10 16 0.00 0.00
3:53 pm 15:53 Partly Cloudy with Nearby Thunderstorms 93 33.9 53 11.7 26 26 ESE 15 24 29.68 1005 10 16 0.00 0.00
4:12 pm 16:12 Mostly Cloudy with Thunderstorms 88 31.1 58 14.4 36 36 SSE 9 15 29.53 1000 10 16 0.01 0.25
4:21 pm 16:21 Cloudy with Thunderstorms 78 25.6 62 16.7 58 58 undefined N/A 29.62 1003 1 2 0.05 1.27
4:32 pm 16:32 Cloudy with Thunderstorms 80 26.7 56 13.3 44 44 NE 17 28 29.62 1003 4 6 0.15 3.81
4:47 pm 16:47 Cloudy with Strong Thunderstorms 73 23 63 17 69 69 NNE 25 41 29.65 1004 2 3 0.35 8.89
4:53 pm 16:53 Windy with Storms Likely 77 25 62 16.7 60 60 ENE 20 31 29.75 1008 4 6 0.39 9.91
5:53 pm 17:53 Partly Cloudy with Thunderstorms 72 22 N/A N/A undefined N/A 29.79 1009 10 16 0.18 4.57
6:23 pm 18:23 Partly Cloudy with Nearby Thunderstorms 73 23 N/A N/A ESE 18 30 29.65 1004 10 16 0.00 0.00
6:37 pm 18:37 undefined 75 24 N/A N/A ESE 17 28 29.62 1003 10 16 0.00 0.00
6:53 pm 18:53 undefined 78 25.6 62 16.7 58 58 SSE 9 15 29.72 1006 10 16 0.00 0.00
7:53 pm 19:53 Sunny 76 24.4 59 15 56 56 S 7 11 29.70 1006 10 16 0.00 0.00
8:53 pm 20:53 Clear 73 22.8 59 15 62 62 VRB 6 9 29.74 1007 10 16 0.00 0.00
9:53 pm 21:53 Clear 67 19.4 60 15.6 79 79 ESE 5 7 29.74 1007 10 16 0.00 0.00
10:53 pm 22:53 Clear 67 19.4 60 15.6 79 79 E 8 13 29.73 1007 10 16 0.00 0.00
11:53 pm 23:53 Clear 67 19.4 61 16.1 81 81 E 10 17 29.70 1006 10 16 0.00 0.00

Powered by AerisWeather